Adler, Russia

1:44 PM MSK on December 11, 2017 (GMT +0300)
Sochi

Weather History for URSS - February, 2013

Change the Weather History Date:

Friday, February 22, 2013

  Actual Average Record
Temperature  
Mean Temperature 46 °F -  
Max Temperature 54 °F - - ()
Min Temperature 37 °F - - ()
Degree Days  
Heating Degree Days 20    
Moisture  
Dew Point 38 °F    
Average Humidity 71    
Maximum Humidity 93    
Minimum Humidity 47    
Precipitation  
Precipitation 0.00 in - - ()
Sea Level Pressure  
Sea Level Pressure 30.03 in    
Wind  
Wind Speed 6 mph ()    
Max Wind Speed 13 mph    
Max Gust Speed 18 mph    
Visibility 6.3 miles    
Events      
T = Trace of Precipitation, MM = Missing Value Source: Averaged Metar Reports

Daily Weather History Graph

Daily Weather History Graph

Search for Another Location

Airport or City:

Trip Planner

Search our weather history database for the weather conditions in past years. The results will help you decide how hot, cold, wet, or windy it might be!

Date:

Astronomy

Feb. 22, 2013 Rise Set
Actual Time 8:08 AM MSK 7:00 PM MSK
Civil Twilight 7:39 AM MSK 7:29 PM MSK
Nautical Twilight 7:06 AM MSK 8:02 PM MSK
Astronomical Twilight 6:33 AM MSK 8:35 PM MSK
Moon 3:47 PM MSK (2/22) 5:43 AM MSK (2/22)
Length of Visible Light 11h 49m
Length of Day
10h 51m
Waxing Gibbous, 88% of the Moon is Illuminated
Feb 22
Waxing Gibbous
Feb 26
Full
Mar 5
Last Quarter
Mar 11
New
Mar 19
First Quarter

Hourly Weather History & Observations

Time (MSK) Temp. Windchill Dew Point Humidity Pressure Visibility Wind Dir Wind Speed Gust Speed Precip Events Conditions
12:00 AM 46.4 °F 40.5 °F 41.0 °F 81% 30.18 in 6.2 mi ESE 13.4 mph - N/A   Overcast
12:30 AM 46.4 °F 41.2 °F 41.0 °F 81% 30.18 in 6.2 mi SE 11.2 mph 17.9 mph N/A   Overcast
1:00 AM 46 °F - 42 °F 80% 30.19 in 2 mi SE 11.2 mph - -   Overcast
1:00 AM 46.4 °F 41.2 °F 41.0 °F 81% 30.18 in 6.2 mi ESE 11.2 mph 17.9 mph N/A   Overcast
1:30 AM 44.6 °F 42.3 °F 41.0 °F 87% 30.15 in 6.2 mi East 4.5 mph - N/A   Overcast
2:00 AM 44.6 °F 42.3 °F 41.0 °F 87% 30.15 in 6.2 mi East 4.5 mph - N/A   Overcast
2:30 AM 42.8 °F 40.2 °F 39.2 °F 87% 30.15 in 6.2 mi East 4.5 mph - N/A   Overcast
3:00 AM 42.8 °F 38.7 °F 39.2 °F 87% 30.15 in 6.2 mi East 6.7 mph - N/A   Overcast
3:30 AM 41.0 °F 35.4 °F 39.2 °F 93% 30.15 in 6.2 mi ENE 8.9 mph - N/A   Overcast
4:00 AM 42 °F - 39 °F 85% 30.17 in 2 mi East 8.9 mph - -   Overcast
4:00 AM 41.0 °F 35.4 °F 39.2 °F 93% 30.15 in 6.2 mi ENE 8.9 mph - N/A   Overcast
4:30 AM 41.0 °F 38.1 °F 37.4 °F 87% 30.15 in 6.2 mi ENE 4.5 mph - N/A   Overcast
5:00 AM 39.2 °F 36.0 °F 37.4 °F 93% 30.12 in 6.2 mi East 4.5 mph - N/A   Overcast
5:30 AM 41.0 °F - 37.4 °F 87% 30.09 in 6.2 mi Calm Calm - N/A   Overcast
6:00 AM 39.2 °F - 37.4 °F 93% 30.09 in 6.2 mi Calm Calm - N/A   Overcast
6:30 AM 39.2 °F 36.0 °F 37.4 °F 93% 30.12 in 6.2 mi East 4.5 mph - N/A   Overcast
7:00 AM 40 °F - 38 °F 88% 30.13 in 2 mi ENE 4.5 mph - -   Overcast
7:00 AM 39.2 °F 36.0 °F 35.6 °F 87% 30.12 in 6.2 mi NE 4.5 mph - N/A   Overcast
7:30 AM 37.4 °F - 35.6 °F 93% 30.09 in 6.2 mi NE 2.2 mph - N/A   Overcast
8:00 AM 39.2 °F 33.1 °F 35.6 °F 87% 30.09 in 6.2 mi NE 8.9 mph - N/A   Overcast
8:30 AM 41.0 °F 36.5 °F 35.6 °F 81% 30.09 in 6.2 mi ENE 6.7 mph - N/A   Overcast
9:00 AM 41.0 °F 36.5 °F 35.6 °F 81% 30.09 in 6.2 mi NE 6.7 mph - N/A   Overcast
9:30 AM 41.0 °F 38.1 °F 35.6 °F 81% 30.09 in 6.2 mi NE 4.5 mph - N/A   Overcast
10:00 AM 41 °F - 37 °F 82% 30.11 in 12 mi ENE 2.2 mph - -   Overcast
10:00 AM 42.8 °F 38.7 °F 35.6 °F 76% 30.09 in 6.2 mi NE 6.7 mph - N/A   Overcast
10:30 AM 42.8 °F 37.6 °F 35.6 °F 76% 30.06 in 6.2 mi NNE 8.9 mph - N/A   Overcast
11:00 AM 44.6 °F 38.9 °F 35.6 °F 71% 30.06 in 6.2 mi NNE 11.2 mph - N/A   Overcast
11:30 AM 46.4 °F 42.0 °F 35.6 °F 66% 30.06 in 6.2 mi NNE 8.9 mph - N/A   Overcast
12:00 PM 48.2 °F - 35.6 °F 62% 30.06 in 6.2 mi NNE 8.9 mph - N/A   Overcast
12:30 PM 48.2 °F - 35.6 °F 62% 30.06 in 6.2 mi NNE 8.9 mph - N/A   Overcast
1:00 PM 50 °F - 40 °F 58% 30.06 in 12 mi South 2.2 mph - -   Overcast
1:00 PM 50.0 °F - 35.6 °F 58% 30.04 in 6.2 mi NNE 6.7 mph - N/A   Overcast
1:30 PM 51.8 °F - 35.6 °F 54% 30.04 in 6.2 mi NNE 4.5 mph - N/A   Overcast
2:00 PM 51.8 °F - 33.8 °F 50% 30.01 in 6.2 mi WNW 2.2 mph - N/A   Overcast
2:30 PM 53.6 °F - 37.4 °F 54% 29.98 in 6.2 mi North 2.2 mph - N/A   Overcast
3:00 PM 53.6 °F - 33.8 °F 47% 29.95 in 6.2 mi East 4.5 mph - N/A   Overcast
3:30 PM 53.6 °F - 37.4 °F 54% 29.92 in 6.2 mi West 4.5 mph - N/A   Overcast
4:00 PM 53 °F - 39 °F 48% 29.93 in 12 mi WNW 4.5 mph - -   Overcast
4:00 PM 53.6 °F - 37.4 °F 54% 29.92 in 6.2 mi WNW 2.2 mph - N/A   Overcast
4:30 PM 53.6 °F - 39.2 °F 58% 29.92 in 6.2 mi WSW 4.5 mph - N/A   Overcast
5:00 PM 53.6 °F - 39.2 °F 58% 29.92 in 6.2 mi West 4.5 mph - N/A   Overcast
5:30 PM 51.8 °F - 41.0 °F 67% 29.92 in 6.2 mi Calm Calm - N/A   Overcast
6:00 PM 51.8 °F - 37.4 °F 58% 29.89 in 6.2 mi Calm Calm - N/A   Overcast
6:30 PM 51.8 °F - 39.2 °F 62% 29.89 in 6.2 mi Calm Calm - N/A   Overcast
7:00 PM 52 °F - 42 °F 61% 29.90 in 12 mi ENE 2.2 mph - -   Overcast
7:00 PM 51.8 °F - 37.4 °F 58% 29.89 in 6.2 mi NE 6.7 mph - N/A   Overcast
7:30 PM 51.8 °F - 37.4 °F 58% 29.89 in 6.2 mi NE 6.7 mph - N/A   Overcast
8:00 PM 50.0 °F - 37.4 °F 62% 29.89 in 6.2 mi NE 8.9 mph - N/A   Overcast
8:30 PM 50.0 °F - 37.4 °F 62% 29.89 in 6.2 mi NE 8.9 mph 15.7 mph N/A   Overcast
9:00 PM 51.8 °F - 37.4 °F 58% 29.86 in 6.2 mi NE 11.2 mph 17.9 mph N/A   Overcast
9:30 PM 51.8 °F - 35.6 °F 54% 29.86 in 6.2 mi NE 8.9 mph - N/A   Overcast
10:00 PM 50 °F - 39 °F 55% 29.87 in 2 mi SW 2.2 mph - -   Overcast
10:00 PM 50.0 °F - 37.4 °F 62% 29.86 in 6.2 mi NNE 6.7 mph - N/A   Overcast
10:30 PM 48.2 °F - 37.4 °F 66% 29.86 in 6.2 mi NE 4.5 mph - N/A   Overcast
11:00 PM 50.0 °F - 37.4 °F 62% 29.86 in 6.2 mi ENE 6.7 mph - N/A   Overcast
11:30 PM 51.8 °F - 35.6 °F 54% 29.86 in 6.2 mi NE 6.7 mph - N/A   Overcast